User: anonymous   Login
Location: El Bakhil
(32.7726°N, 5.5387°W)
Time: 00:44:03
(UTC+00:00)
Language:

Hubble Space Telescope - Orbit

View from above orbital plane
View from above orbital plane
View from above satellite
View from above satellite

Ground track
Ground track

The orbit data is extracted from the following two-line orbital elements,

1 20580U 90037B   22023.51634274  .00001313  00000-0  67927-4 0  9998
2 20580  28.4712  48.6971 0002334 273.1802 216.5002 15.09963637544289
Epoch (UTC): 23 January 2022 12:23:32
Eccentricity: 0.0002334
inclination: 28.4712°
perigee height: 535 km
apogee height: 538 km
right ascension of ascending node: 48.6971°
argument of perigee: 273.1802°
revolutions per day: 15.09963637
mean anomaly at epoch: 216.5002°
orbit number at epoch: 54428

The dashed part of the orbit path shows where the satellite is in the earth's shadow,  

DLR